Location: Nashville
(36.1660°N, 86.7840°W)
Time: 23:45:13
(UTC-05:00)

SR - Visible Passes

Search period start: 09 August 2022 00:00
Search period end: 19 August 2022 00:00
Orbit: 572 x 880 km, 66.7° (Epoch: 09 August)

Date Brightness Start Highest point End Pass type
(mag) Time Alt. Az. Time Alt. Az. Time Alt. Az.
09 Aug ? 20:40:59 10° NW 20:46:28 47° WSW 20:51:32 10° S visible
10 Aug ? 21:36:09 10° W 21:37:33 11° W 21:38:56 10° WSW visible
11 Aug ? 20:43:25 10° NW 20:47:55 25° WSW 20:52:09 10° SSW visible
13 Aug ? 20:47:04 10° WNW 20:49:12 12° W 20:51:16 10° SW visible
16 Aug ? 19:58:12 10° WNW 20:00:51 14° WSW 20:03:23 10° SW visible
